Campo, CA

9:22 AM PDT on July 23, 2019 (GMT -0700)
Campo

Weather History for KCZZ - May, 2019

Change the Weather History Date:

Wednesday, May 1, 2019

  Actual Average Record
Temperature  
Mean Temperature 59 °F 58 °F  
Max Temperature 70 °F 76 °F 93 °F (2000)
Min Temperature 48 °F 40 °F 26 °F (1969)
Degree Days  
Heating Degree Days 6 7  
Month to date heating degree days 6 7  
Since 1 July heating degree days 2724 2775  
Cooling Degree Days 0 0  
Month to date cooling degree days 0 0  
Year to date cooling degree days 2 3  
Growing Degree Days 7 (Base 50)    
Moisture  
Dew Point 44 °F    
Average Humidity 62    
Maximum Humidity 86    
Minimum Humidity 37    
Precipitation  
Precipitation 0.00 in 0.02 in 0.99 in (1955)
Month to date precipitation 0.00 0.02  
Year to date precipitation 11.19 9.88  
Sea Level Pressure  
Sea Level Pressure 29.90 in    
Wind  
Wind Speed 7 mph (WSW)    
Max Wind Speed 18 mph    
Max Gust Speed 23 mph    
T = Trace of Precipitation, MM = Missing Value Source: NWS Daily Summary

Daily Weather History Graph

Daily Weather History Graph

Search for Another Location

Airport or City:

Astronomy

May. 01, 2019 Rise Set
Actual Time 5:59 AM PDT 7:27 PM PDT
Civil Twilight 5:32 AM PDT 7:53 PM PDT
Nautical Twilight 5:01 AM PDT 8:24 PM PDT
Astronomical Twilight 4:28 AM PDT 8:57 PM PDT
Moon 4:29 AM PDT (5/1) 4:34 PM PDT (5/1)
Length of Visible Light 14h 20m
Length of Day
13h 28m
Waning Crescent, 10% of the Moon is Illuminated
May 1
Waning Crescent
May 4
New
May 11
First Quarter
May 18
Full
May 26
Last Quarter

Hourly Weather History & Observations

Time (PDT) Temp. Windchill Dew Point Humidity Pressure Visibility Wind Dir Wind Speed Gust Speed Precip Events Conditions
12:52 AM 48.9 °F - 45.0 °F 86% 29.92 in - SW 8.1 mph - N/A   Unknown
1:52 AM 48.9 °F - 41.0 °F 74% 29.90 in - WSW 4.6 mph - N/A   Unknown
2:52 AM 48.9 °F - 39.9 °F 71% 29.89 in - West 4.6 mph - N/A   Unknown
3:52 AM 48.0 °F - 39.9 °F 74% 29.89 in - WSW 4.6 mph - N/A   Unknown
4:52 AM 48.0 °F - 41.0 °F 77% 29.89 in - WSW 3.5 mph - N/A   Unknown
5:52 AM 48.0 °F - 42.1 °F 80% 29.91 in - Calm Calm - N/A   Unknown
6:52 AM 48.9 °F - 42.1 °F 77% 29.91 in - SW 4.6 mph - N/A   Unknown
7:52 AM 50.0 °F - 42.1 °F 74% 29.93 in - West 5.8 mph - N/A   Unknown
8:52 AM 51.1 °F - 42.1 °F 71% 29.93 in - NW 4.6 mph - N/A   Unknown
9:52 AM 55.0 °F - 44.1 °F 67% 29.93 in - ESE 5.8 mph - N/A   Unknown
10:52 AM 60.1 °F - 45.0 °F 57% 29.92 in - SW 5.8 mph - N/A   Unknown
11:52 AM 63.0 °F - 46.0 °F 54% 29.90 in - SSW 8.1 mph - N/A   Unknown
12:52 PM 66.0 °F - 46.0 °F 48% 29.88 in - SW 17.3 mph - N/A   Unknown
1:52 PM 68.0 °F - 44.1 °F 42% 29.88 in - SW 13.8 mph - N/A   Unknown
2:52 PM 69.1 °F - 43.0 °F 39% 29.89 in - WSW 15.0 mph 19.6 mph N/A   Unknown
3:52 PM 69.1 °F - 44.1 °F 40% 29.87 in - West 10.4 mph - N/A   Unknown
4:52 PM 68.0 °F - 44.1 °F 42% 29.85 in - West 6.9 mph - N/A   Unknown
5:52 PM 64.9 °F - 48.0 °F 54% 29.85 in - SW 15.0 mph - N/A   Unknown
6:52 PM 61.0 °F - 48.0 °F 62% 29.86 in - SW 11.5 mph - N/A   Unknown
7:52 PM 54.0 °F - 46.9 °F 77% 29.89 in - SW 9.2 mph - N/A   Unknown
8:52 PM 51.1 °F - 46.0 °F 83% 29.93 in - SSW 6.9 mph - N/A   Unknown
9:52 PM 50.0 °F - 46.0 °F 86% 29.96 in - SSW 3.5 mph - N/A   Unknown
10:52 PM 45.0 °F 42.6 °F 41.0 °F 86% 29.96 in - NNE 4.6 mph - N/A   Unknown
11:52 PM 48.9 °F - 46.0 °F 90% 29.96 in - Calm Calm - N/A   Unknown